Station NABM4 - Naubinway, MI Image indicating link to RSS feed of recent meteorological observations for station NABM4


Conditions at NABM4 as of
(6:40 am EDT)
1040 GMT on 04/14/2024:
     

Click on the graph icon in the table below to see a time series plot of the last five days of that observation.

5-day plot - Wind Direction Wind Direction (WDIR): SE ( 130 deg true )
5-day plot - Wind Speed Wind Speed (WSPD): 1.9 kts
5-day plot - Wind Gust Wind Gust (GST): 7.0 kts
5-day plot - Atmospheric Pressure Atmospheric Pressure (PRES):29.58 in
5-day plot - Air Temperature Air Temperature (ATMP): 41.2 °F
5-day plot - Wind Speed at 10 Meters Wind Speed at 10 meters (WSPD10M): 1.9 kts
5-day plot - Wind Speed at 20 Meters Wind Speed at 20 meters (WSPD20M): 1.9 kts
5-day plot -  Wind Speed, Wind Gust and Atmospheric Pressure Combined plot of Wind Speed, Gust, and Air Pressure
Previous observations
TIME
(EDT)
5-day plot - Wind Direction
WDIR
 
5-day plot - Wind Speed
WSPD
kts
5-day plot - Wind Gust
GST
kts
5-day plot - Wave Height
WVHT
ft
5-day plot - Dominant Wave Period
DPD
sec
5-day plot - Average Wave Period
APD
sec
5-day plot - Mean Wave Direction
MWD
 
5-day plot - Atmospheric Pressure
PRES
in
5-day plot - Pressure Tendency
PTDY
in
5-day plot - Air Temperature
ATMP
°F
5-day plot - Water Temperature
WTMP
°F
5-day plot - Dew Point
DEWP
°F
5-day plot - Salinity
SAL
psu
5-day plot - Visibility
VIS
nmi
5-day plot - Tide (above MLLW)
TIDE
ft
2024-04-14 06:30 am SE 7.0 7.0----29.58- 41.4-----
2024-04-14 06:20 amESE 6.0 8.0----29.58- 41.5-----
2024-04-14 06:10 amESE 6.0 8.0----29.58- 41.5-----
2024-04-14 06:00 am E 7.0 8.9----29.58-0.08 41.7-----
2024-04-14 05:50 am E 8.0 8.9----29.59- 41.7-----
2024-04-14 05:40 am E 8.0 11.1----29.59- 41.9-----
2024-04-14 05:30 am E 6.0 9.9----29.59- 41.9-----
2024-04-14 05:20 am E 6.0 8.9----29.60- 42.3-----
2024-04-14 05:10 am E 8.0 12.0----29.60- 42.6-----
2024-04-14 05:00 amESE 9.9 13.0----29.61-0.09 42.8-----
2024-04-14 04:50 amESE 12.0 14.0----29.61- 42.6-----
2024-04-14 04:40 amESE 11.1 14.0----29.62- 42.8-----
2024-04-14 04:30 amESE 14.0 15.9----29.62- 42.6-----
2024-04-14 04:20 amESE 14.0 17.1----29.62- 42.1-----
2024-04-14 04:10 amESE 14.0 18.1----29.62- 41.4-----
2024-04-14 04:00 amESE 14.0 18.1----29.62-0.12 41.2-----
2024-04-14 03:50 amESE 15.0 19.0----29.62- 41.0-----
2024-04-14 03:40 amESE 15.9 19.0----29.62- 40.8-----
2024-04-14 03:30 am SE 13.0 18.1----29.63- 40.8-----
2024-04-14 03:20 am SE 15.9 21.0----29.63- 41.2-----
2024-04-14 03:10 am SE 13.0 17.1----29.65- 41.5-----
2024-04-14 03:00 am SE 14.0 17.1----29.66-0.10 41.5-----
2024-04-14 02:50 am SE 11.1 15.9----29.67- 41.9-----
2024-04-14 02:40 amESE 11.1 13.0----29.66- 41.9-----
2024-04-14 02:30 am SE 11.1 12.0----29.66- 41.9-----
2024-04-14 02:20 amESE 8.0 9.9----29.69- 42.1-----
2024-04-14 02:10 amESE 8.9 9.9----29.69- 42.1-----
2024-04-14 02:00 am E 6.0 7.0----29.70-0.10 42.1-----
2024-04-14 01:50 am E 7.0 8.0----29.72- 42.1-----
2024-04-14 01:40 am E 7.0 8.9----29.72- 42.3-----
2024-04-14 01:30 am E 8.0 9.9----29.73- 42.3-----
2024-04-14 01:20 amENE 8.9 11.1----29.73- 42.3-----
2024-04-14 01:10 amENE 8.9 9.9----29.73- 42.1-----
2024-04-14 01:00 amENE 8.0 8.9----29.74-0.09 41.7-----
2024-04-14 12:50 amENE 7.0 8.0----29.75- 41.7-----
2024-04-14 12:40 am E 6.0 8.0----29.74- 41.5-----
2024-04-14 12:30 amENE 5.1 7.0----29.75- 41.5-----
2024-04-14 12:20 amENE 4.1 7.0----29.75- 41.7-----
2024-04-14 12:10 am E 5.1 7.0----29.75- 41.9-----
2024-04-14 12:00 am E 6.0 8.9----29.76-0.09 41.9-----
2024-04-13 11:50 pmESE 8.0 8.9----29.75- 41.5-----
2024-04-13 11:40 pmESE 6.0 8.0----29.77- 41.2-----
2024-04-13 11:30 pmESE 7.0 8.0----29.78- 41.0-----
2024-04-13 11:20 pm E 5.1 9.9----29.78- 41.2-----
2024-04-13 11:10 pm SE 6.0 8.0----29.78- 41.2-----
2024-04-13 11:00 pm SE 5.1 5.1----29.80-0.05 41.7-----
2024-04-13 10:50 pm SE 4.1 5.1----29.81- 41.7-----
2024-04-13 10:40 pm- 0.0 2.9----29.82- 41.9-----
2024-04-13 10:30 pmESE 2.9 5.1----29.83- 42.1-----
2024-04-13 10:20 pm SE 2.9 5.1----29.82- 42.3-----
2024-04-13 10:10 pmESE 4.1 8.0----29.82- 42.1-----
2024-04-13 10:00 pm SE 4.1 7.0----29.83-0.05 42.1-----
2024-04-13 09:50 pmESE 6.0 6.0----29.83- 42.8-----
2024-04-13 09:40 pm SE 1.9 4.1----29.84- 42.8-----
2024-04-13 09:30 pm SE 2.9 4.1----29.84- 42.4-----
2024-04-13 09:20 pmESE 1.0 1.9----29.85- 42.6-----
2024-04-13 09:10 pm- 0.0 1.9----29.85- 43.0-----
2024-04-13 09:00 pm- 0.0 1.9----29.85+0.01 43.0-----
2024-04-13 08:50 pm NE 1.9 4.1----29.84- 43.2-----
2024-04-13 08:40 pm NE 2.9 4.1----29.85- 43.3-----
2024-04-13 08:30 pm N 2.9 6.0----29.85- 43.3-----
2024-04-13 08:20 pmNNW 4.1 5.1----29.85- 42.8-----
2024-04-13 08:10 pm NW 1.0 2.9----29.84- 42.1-----
2024-04-13 08:00 pm- 0.0 6.0----29.85+0.00 42.1-----
2024-04-13 07:50 pmWSW 4.1 6.0----29.85- 42.1-----
2024-04-13 07:40 pm SW 4.1 9.9----29.85- 42.3-----
2024-04-13 07:30 pmWSW 7.0 11.1----29.86- 42.3-----
2024-04-13 07:20 pm SW 6.0 9.9----29.87- 42.1-----
2024-04-13 07:10 pm SW 7.0 12.0----29.87- 41.9-----
2024-04-13 07:00 pmWSW 8.0 13.0----29.88+0.00 41.9-----
2024-04-13 06:50 pm SW 8.0 12.0----29.86- 41.7-----
2024-04-13 06:40 pmWSW 7.0 14.0----29.87- 41.5-----
2024-04-13 06:30 pmWSW 9.9 15.9----29.86- 41.2-----
2024-04-13 06:20 pmSSW 12.0 15.9----29.83- 41.5-----
2024-04-13 06:10 pm SW 14.0 17.1----29.83- 41.7-----
2024-04-13 06:00 pm SW 11.1 18.1----29.84-0.05 41.9-----
2024-04-13 05:50 pm SW 14.0 18.1----29.84- 41.9-----
2024-04-13 05:40 pm SW 15.0 18.1----29.83- 42.3-----
2024-04-13 05:30 pm SW 17.1 20.0----29.83- 42.4-----
2024-04-13 05:20 pm SW 17.1 20.0----29.83- 42.6-----
2024-04-13 05:10 pm SW 18.1 21.0----29.84- 43.2-----
2024-04-13 05:00 pm SW 17.1 22.0----29.85-0.04 43.5-----
2024-04-13 04:50 pm SW 20.0 22.9----29.85- 43.3-----
2024-04-13 04:40 pm SW 17.1 22.0----29.86- 44.1-----
2024-04-13 04:30 pm SW 15.9 21.0----29.86-------
2024-04-13 04:20 pm SW 14.0 19.0----29.87-------
2024-04-13 04:10 pm SW 15.0 21.0----29.87-------
2024-04-13 04:00 pm SW 14.0 19.0----29.88-0.02------
2024-04-13 03:50 pmSSW 15.0 15.9----29.87-------
2024-04-13 03:40 pm NW 8.0 14.0----29.88- 53.6-----
2024-04-13 03:30 pmWNW 8.0 15.0----29.88- 53.1-----
2024-04-13 03:20 pm NW 12.0 15.0----29.88- 52.9-----
2024-04-13 03:10 pm W 7.0 13.0----29.89- 52.5-----
2024-04-13 03:00 pm W 8.0 13.0----29.89-0.01 52.9-----
2024-04-13 02:50 pmWNW 8.0 12.0----29.89- 52.5-----
2024-04-13 02:40 pm W 7.0 15.0----29.89- 52.2-----
2024-04-13 02:30 pmWNW 8.9 15.0----29.89- 51.6-----
2024-04-13 02:20 pm NW 9.9 17.1----29.89- 51.6-----
2024-04-13 02:10 pm W 8.0 15.0----29.90- 51.6-----
2024-04-13 02:00 pmWNW 8.9 19.0----29.89-0.01 50.5-----
2024-04-13 01:50 pmWNW 6.0 15.0----29.90- 51.3-----
2024-04-13 01:40 pmWNW 13.0 17.1----29.90- 51.3-----
2024-04-13 01:30 pmWNW 12.0 20.0----29.90- 50.4-----
2024-04-13 01:20 pmWNW 11.1 17.1----29.90- 50.0-----
2024-04-13 01:10 pmWNW 8.0 20.0----29.90- 49.8-----
2024-04-13 01:00 pmWNW 11.1 15.9----29.90+0.00 49.5-----
2024-04-13 12:50 pm NW 13.0 17.1----29.90- 49.6-----
2024-04-13 12:40 pmNNW 12.0 20.0----29.90- 48.6-----
2024-04-13 12:30 pm NW 11.1 22.9----29.90- 48.2-----
2024-04-13 12:20 pmWNW 9.9 19.0----29.90- 49.5-----
2024-04-13 12:10 pm NW 12.0 18.1----29.90- 48.7-----
2024-04-13 12:00 pmNNW 11.1 15.9----29.90+0.00 47.7-----
2024-04-13 11:50 amWNW 8.9 15.0----29.90- 48.0-----
2024-04-13 11:40 amWNW 8.0 18.1----29.91- 47.3-----
2024-04-13 11:30 amWNW 11.1 18.1----29.90- 47.1-----
2024-04-13 11:20 amNNW 15.0 19.0----29.91- 46.2-----
2024-04-13 11:10 am NW 12.0 18.1----29.90- 46.2-----
2024-04-13 11:00 am NW 12.0 17.1----29.90+0.00 45.1-----
2024-04-13 10:50 am NW 13.0 19.0----29.90- 44.8-----
2024-04-13 10:40 amWNW 8.0 19.0----29.91- 44.4-----
2024-04-13 10:30 am NW 14.0 20.0----29.90- 43.9-----
2024-04-13 10:20 amWNW 13.0 17.1----29.90- 43.7-----
2024-04-13 10:10 am NW 9.9 15.9----29.90- 43.2-----
2024-04-13 10:00 am NW 9.9 21.0----29.90+0.03 42.6-----
2024-04-13 09:50 amNNW 13.0 18.1----29.90- 41.9-----
2024-04-13 09:40 am NW 12.0 20.0----29.90- 41.4-----
2024-04-13 09:30 amNNW 13.0 15.9----29.90- 41.4-----
2024-04-13 09:20 amNNW 11.1 17.1----29.90- 41.0-----
2024-04-13 09:10 am NW 9.9 15.9----29.90- 40.6-----
2024-04-13 09:00 am NW 11.1 17.1----29.90+0.05 40.1-----
2024-04-13 08:50 am NW 7.0 9.9----29.90- 39.6-----
2024-04-13 08:40 amWNW 6.0 12.0----29.90- 39.0-----
2024-04-13 08:30 amWNW 7.0 12.0----29.90- 38.8-----
2024-04-13 08:20 am W 5.1 11.1----29.90- 38.1-----
2024-04-13 08:10 amWNW 5.1 9.9----29.90- 37.8-----
2024-04-13 08:00 am W 4.1 8.9----29.90+0.07 37.2-----
2024-04-13 07:50 am W 6.0 9.9----29.89- 37.0-----
2024-04-13 07:40 amWNW 5.1 8.9----29.89- 36.7-----
2024-04-13 07:30 amWNW 6.0 9.9----29.89- 36.3-----
2024-04-13 07:20 amWNW 7.0 9.9----29.88- 36.0-----
2024-04-13 07:10 amWNW 7.0 11.1----29.88- 35.8-----
2024-04-13 07:00 amWNW 6.0 9.9----29.87+0.06 35.8-----
2024-04-13 06:50 amWNW 8.0 11.1----29.87- 35.8-----